Flag for U.S.A. Weather past 2 weeks in Sandpoint, Idaho, U.S.A.

Now
64 °F

Clear.


Feels Like: 64 °F
Forecast: 54 / 90 °F
Wind: No wind

Location: Sandpoint Airport

Current Time: Jul 4, 2015 at 12:15:26 AM

Latest Report: Jul 3, 2015 at 11:55 PM


Visibility: 10 mi

Pressure: 29.78 "Hg (27.64 "Hg at 636m altitude)

Humidity: 64%

Dew point: 52 °F

Location of SandpointLocation

Historic Weather in Sandpoint — Graph

°F

Sandpoint temperature yesterday

Maximum temperature yesterday: 97 °F (at 3:35 PM)
Minimum temperature yesterday: 54 °F (at 4:15 AM)
Average temperature yesterday: 76 °F

Past Weeks' High & Low Weather Summary

 TemperatureHumidityPressure
High100 °F (Jun 28, 3:15 PM)100% (Jun 30, 12:55 AM)30.15 "Hg (Jun 30, 12:55 AM)
Low43 °F (Jun 20, 4:55 AM)13% (Jun 28, 3:55 PM)29.75 "Hg (Jul 3, 6:55 PM)
Average70 °F51%29.98 "Hg
* Reported Jun 18 10:15 PM — Jul 3 10:55 PM, Sandpoint, Weather by CustomWeather, © 2015

Note: Actual official high and low records may vary slightly from our data, if they occured in-between our weather recording intervals... More about our weather records

Advertising

Sandpoint weather history for previous 24 hours

 ConditionsComfort  
Time TempWeatherWind HumidityBarometerVisibility
10:55 PM
Fri, Jul 3
66 °FClear.No wind60%29.77 "Hg10 mi
10:35 PM68 °FClear.No wind56%29.77 "Hg10 mi
10:15 PM70 °FClear.No wind53%29.77 "Hg10 mi
9:55 PM70 °FClear.No wind53%29.76 "Hg10 mi
9:35 PM72 °FSunny.No wind53%29.76 "Hg10 mi
9:15 PM72 °FSunny.No wind57%29.76 "Hg10 mi
8:35 PM75 °FSunny.3 mph44%29.75 "Hg10 mi
8:15 PM79 °FSunny.No wind39%29.75 "Hg10 mi
7:55 PM79 °FSunny.No wind45%29.75 "Hg10 mi
7:15 PM90 °FSunny.No wind29%29.75 "Hg10 mi
6:55 PM93 °FSunny.No wind19%29.75 "Hg10 mi
6:35 PM95 °FSunny.6 mph16%29.76 "Hg10 mi
6:15 PM95 °FSunny.6 mph16%29.76 "Hg10 mi
5:55 PM95 °FSunny.8 mph16%29.77 "Hg10 mi
5:35 PM95 °FSunny.6 mph16%29.78 "Hg10 mi
5:15 PM95 °FSunny.3 mph15%29.78 "Hg10 mi
4:55 PM95 °FSunny.6 mph15%29.79 "Hg10 mi
4:35 PM97 °FSunny.8 mph14%29.80 "Hg10 mi
4:15 PM97 °FSunny.9 mph14%29.81 "Hg10 mi
3:55 PM97 °FSunny.8 mph14%29.81 "Hg10 mi
3:35 PM97 °FSunny.8 mph14%29.82 "Hg10 mi
3:15 PM95 °FSunny.8 mph15%29.83 "Hg10 mi
2:55 PM95 °FSunny.8 mph15%29.83 "Hg10 mi
2:35 PM95 °FSunny.10 mph15%29.84 "Hg10 mi
2:15 PM95 °FSunny.12 mph15%29.84 "Hg10 mi
1:55 PM91 °FSunny.8 mph24%29.85 "Hg10 mi
1:35 PM90 °FSunny.8 mph27%29.86 "Hg10 mi
1:15 PM88 °FSunny.8 mph31%29.87 "Hg10 mi
12:55 PM88 °FSunny.7 mph29%29.88 "Hg10 mi
12:35 PM88 °FSunny.7 mph29%29.88 "Hg10 mi
12:15 PM86 °FSunny.7 mph29%29.89 "Hg10 mi
11:55 AM86 °FSunny.5 mph31%29.90 "Hg10 mi
11:35 AM84 °FSunny.5 mph33%29.91 "Hg10 mi
11:15 AM82 °FSunny.No wind35%29.91 "Hg10 mi
10:55 AM82 °FSunny.No wind35%29.92 "Hg10 mi
10:35 AM81 °FSunny.No wind37%29.92 "Hg10 mi
10:15 AM81 °FSunny.5 mph39%29.93 "Hg10 mi
9:55 AM81 °FSunny.6 mph34%29.94 "Hg10 mi
9:35 AM79 °FSunny.6 mph39%29.94 "Hg10 mi
9:15 AM79 °FSunny.3 mph39%29.94 "Hg10 mi
8:55 AM77 °FSunny.5 mph42%29.95 "Hg10 mi
8:15 AM73 °FSunny.5 mph44%29.95 "Hg10 mi
7:55 AM70 °FSunny.No wind53%29.95 "Hg10 mi
7:35 AM68 °FSunny.No wind56%29.95 "Hg10 mi
7:15 AM66 °FSunny.No wind60%29.95 "Hg10 mi
6:55 AM63 °FSunny.No wind68%29.95 "Hg10 mi
6:15 AM59 °FSunny.No wind72%29.94 "Hg10 mi
5:55 AM57 °FSunny.No wind77%29.94 "Hg10 mi
5:35 AM55 °FClear.No wind77%29.94 "Hg10 mi
5:15 AM55 °FClear.No wind77%29.94 "Hg10 mi
4:55 AM54 °FClear.No wind82%29.94 "Hg10 mi
4:35 AM54 °FClear.No wind82%29.94 "Hg10 mi
4:15 AM54 °FClear.No wind82%29.93 "Hg10 mi
3:55 AM55 °FClear.No wind82%29.93 "Hg10 mi
3:35 AM55 °FClear.No wind82%29.93 "Hg10 mi
3:15 AM57 °FClear.No wind77%29.93 "Hg10 mi
2:55 AM55 °FClear.No wind82%29.92 "Hg10 mi
2:35 AM55 °FClear.No wind82%29.92 "Hg10 mi
2:15 AM57 °FClear.3 mph77%29.92 "Hg10 mi
1:55 AM59 °FClear.No wind72%29.92 "Hg10 mi
1:35 AM59 °FClear.No wind72%29.92 "Hg10 mi
1:15 AM59 °FClear.No wind72%29.92 "Hg10 mi
12:55 AM59 °FClear.No wind72%29.92 "Hg10 mi
12:35 AM63 °FClear.No wind64%29.92 "Hg10 mi
12:15 AM61 °FClear.No wind68%29.92 "Hg10 mi
Weather by CustomWeather, © 2015

See weather overviewHow to use our weather pages